User: anonymous   Login
Location: Oshawa
(43.9000°N, 78.8670°W)
Time: 17:59:48
(UTC-04:00)
Language:

S-56A Canister/Altair - Orbit

View from above orbital plane
View from above orbital plane
View from above satellite
View from above satellite

Ground track
Ground track

The orbit data is extracted from the following two-line orbital elements,

1    82U 61004B   16273.84147844 +.00000102 +00000-0 +13583-3 0  9996
2    82 038.8521 180.4191 1166434 017.5547 346.2183 12.25781280641315
Epoch (UTC): 29 September 2016 20:11:43
Eccentricity: 0.1166434
inclination: 38.8521°
perigee height: 640 km
apogee height: 2494 km
right ascension of ascending node: 180.4191°
argument of perigee: 17.5547°
revolutions per day: 12.25781280
mean anomaly at epoch: 346.2183°
orbit number at epoch: 64131

The dashed part of the orbit path shows where the satellite is in the earth's shadow,  

DLR